CSN721 RCKH-ZGSZ

Flight info

Callsign CSN721
Flight time 1h 9m
Altitude 28000
Route PARAS1B PARAS T7 WP521 G581 CYRUS R200 LAPUG/K0857S0855 R200 OVGOT OVGOT3
Aircraft B738/M-SDE2E3FGHIRWXY/LB1

Departure

Time 2026-04-22 14:31
Airport Kaohsiung International Airport (RCKH)

Arrival

Time 2026-04-22 15:40
Airport Shenzhen Bao'an International Airport (ZGSZ)
Time Latitude Longitude Altitude Speed Heading
2026-04-22 14:07 22.57332 120.34227 37 ft 0 kts 271°
2026-04-22 14:19 22.57332 120.34228 37 ft 2 kts 271°
2026-04-22 14:19 22.57332 120.34255 33 ft 4 kts 271°
2026-04-22 14:19 22.57332 120.34284 33 ft 4 kts 267°
2026-04-22 14:20 22.57348 120.34326 33 ft 2 kts 180°
2026-04-22 14:20 22.57373 120.34326 37 ft 3 kts 180°
2026-04-22 14:20 22.57394 120.34325 36 ft 4 kts 155°
2026-04-22 14:21 22.57403 120.34280 35 ft 4 kts 89°
2026-04-22 14:21 22.57404 120.34256 34 ft 4 kts 91°
2026-04-22 14:22 22.57404 120.34239 37 ft 0 kts 91°
2026-04-22 14:23 22.57404 120.34249 37 ft 4 kts 91°
2026-04-22 14:24 22.57402 120.34304 34 ft 10 kts 91°
2026-04-22 14:24 22.57400 120.34379 37 ft 10 kts 91°
2026-04-22 14:24 22.57398 120.34451 37 ft 10 kts 92°
2026-04-22 14:24 22.57396 120.34522 37 ft 9 kts 92°
2026-04-22 14:25 22.57395 120.34590 37 ft 9 kts 81°
2026-04-22 14:25 22.57447 120.34615 37 ft 9 kts
2026-04-22 14:25 22.57508 120.34616 37 ft 9 kts
2026-04-22 14:25 22.57548 120.34654 35 ft 8 kts 77°
2026-04-22 14:26 22.57548 120.34720 37 ft 10 kts 91°
2026-04-22 14:26 22.57545 120.34827 37 ft 19 kts 92°
2026-04-22 14:26 22.57540 120.34993 37 ft 25 kts 91°
2026-04-22 14:26 22.57534 120.35182 37 ft 24 kts 92°
2026-04-22 14:27 22.57529 120.35359 37 ft 23 kts 92°
2026-04-22 14:27 22.57523 120.35529 37 ft 22 kts 92°
2026-04-22 14:27 22.57518 120.35694 37 ft 22 kts 92°
2026-04-22 14:27 22.57514 120.35854 37 ft 21 kts 92°
2026-04-22 14:28 22.57509 120.36010 38 ft 20 kts 92°
2026-04-22 14:28 22.57504 120.36159 38 ft 20 kts 92°
2026-04-22 14:28 22.57500 120.36305 37 ft 19 kts 92°
2026-04-22 14:28 22.57496 120.36436 37 ft 10 kts 92°
2026-04-22 14:29 22.57500 120.36501 37 ft 9 kts 64°
2026-04-22 14:29 22.57551 120.36526 38 ft 8 kts
2026-04-22 14:29 22.57608 120.36526 38 ft 8 kts
2026-04-22 14:29 22.57656 120.36506 37 ft 8 kts 303°
2026-04-22 14:30 22.57663 120.36448 38 ft 8 kts 271°
2026-04-22 14:30 22.57665 120.36379 39 ft 20 kts 271°
2026-04-22 14:30 22.57677 120.35956 38 ft 92 kts 272°
2026-04-22 14:30 22.57706 120.35034 38 ft 151 kts 271°
2026-04-22 14:31 22.57740 120.33815 530 ft 166 kts 271°
2026-04-22 14:31 22.57776 120.32544 1204 ft 172 kts 271°
2026-04-22 14:31 22.57810 120.31241 1954 ft 173 kts 271°
2026-04-22 14:31 22.57843 120.29940 2709 ft 173 kts 271°
2026-04-22 14:32 22.57877 120.28643 3422 ft 176 kts 271°
2026-04-22 14:32 22.57912 120.27220 3702 ft 203 kts 271°
2026-04-22 14:32 22.57948 120.25629 3884 ft 225 kts 268°
2026-04-22 14:32 22.57472 120.23952 4040 ft 251 kts 233°
2026-04-22 14:33 22.56229 120.22554 4581 ft 262 kts 226°
2026-04-22 14:33 22.54943 120.21144 5332 ft 264 kts 227°
2026-04-22 14:33 22.53665 120.19713 6140 ft 265 kts 228°
2026-04-22 14:33 22.52386 120.18269 6854 ft 267 kts 229°
2026-04-22 14:34 22.51097 120.16809 7541 ft 270 kts 229°
2026-04-22 14:34 22.49812 120.15350 8229 ft 273 kts 229°
2026-04-22 14:34 22.48499 120.13859 8940 ft 276 kts 230°
2026-04-22 14:34 22.47168 120.12347 9654 ft 278 kts 230°
2026-04-22 14:35 22.45826 120.10823 10276 ft 283 kts 230°
2026-04-22 14:35 22.44417 120.09219 10465 ft 305 kts 229°
2026-04-22 14:35 22.42903 120.07499 10616 ft 326 kts 229°
2026-04-22 14:35 22.41343 120.05628 10763 ft 344 kts 234°
2026-04-22 14:36 22.39899 120.03508 11014 ft 355 kts 237°
2026-04-22 14:36 22.38493 120.01291 11498 ft 360 kts 238°
2026-04-22 14:36 22.37102 119.99080 12079 ft 362 kts 237°
2026-04-22 14:36 22.35675 119.96832 12653 ft 364 kts 237°
2026-04-22 14:37 22.34222 119.94571 13216 ft 368 kts 237°
2026-04-22 14:37 22.32748 119.92298 13779 ft 371 kts 236°
2026-04-22 14:37 22.31255 119.90007 14282 ft 374 kts 236°
2026-04-22 14:37 22.29749 119.87703 14799 ft 377 kts 236°
2026-04-22 14:38 22.28230 119.85383 15306 ft 380 kts 236°
2026-04-22 14:38 22.26697 119.83044 15808 ft 383 kts 236°
2026-04-22 14:38 22.25155 119.80689 16314 ft 386 kts 236°
2026-04-22 14:38 22.23621 119.78349 16811 ft 388 kts 236°
2026-04-22 14:39 22.22056 119.75965 17295 ft 391 kts 237°
2026-04-22 14:39 22.20699 119.73428 17724 ft 392 kts 251°
2026-04-22 14:39 22.20012 119.70589 18207 ft 392 kts 258°
2026-04-22 14:40 22.18825 119.64803 18963 ft 398 kts 258°
2026-04-22 14:40 22.18203 119.61887 19335 ft 400 kts 257°
2026-04-22 14:40 22.17564 119.58955 19704 ft 403 kts 257°
2026-04-22 14:40 22.16926 119.56049 20067 ft 405 kts 257°
2026-04-22 14:41 22.16289 119.53084 20431 ft 407 kts 259°
2026-04-22 14:41 22.15953 119.50048 20769 ft 409 kts 268°
2026-04-22 14:41 22.15881 119.46972 21116 ft 411 kts 269°
2026-04-22 14:41 22.15826 119.43879 21450 ft 414 kts 269°
2026-04-22 14:42 22.15766 119.40766 21779 ft 416 kts 269°
2026-04-22 14:42 22.15697 119.37637 22102 ft 419 kts 269°
2026-04-22 14:42 22.15619 119.34492 22420 ft 421 kts 269°
2026-04-22 14:42 22.15535 119.31329 22734 ft 423 kts 268°
2026-04-22 14:43 22.15448 119.28189 23030 ft 425 kts 268°
2026-04-22 14:43 22.15359 119.24989 23322 ft 428 kts 268°
2026-04-22 14:43 22.15268 119.21777 23591 ft 430 kts 268°
2026-04-22 14:43 22.15176 119.18553 23843 ft 431 kts 268°
2026-04-22 14:44 22.15085 119.15316 24106 ft 432 kts 268°
2026-04-22 14:44 22.14992 119.12072 24367 ft 433 kts 268°
2026-04-22 14:44 22.14931 119.08819 24613 ft 435 kts 271°
2026-04-22 14:44 22.15211 119.05566 24844 ft 436 kts 278°
2026-04-22 14:45 22.15683 119.02331 25096 ft 437 kts 278°
2026-04-22 14:45 22.16123 118.99125 25328 ft 439 kts 278°
2026-04-22 14:45 22.16538 118.95858 25564 ft 440 kts 277°
2026-04-22 14:45 22.16935 118.92578 25789 ft 442 kts 277°
2026-04-22 14:46 22.17325 118.89283 26009 ft 443 kts 277°
2026-04-22 14:46 22.17715 118.85977 26240 ft 445 kts 277°
2026-04-22 14:46 22.18107 118.82669 26469 ft 446 kts 277°
2026-04-22 14:46 22.18501 118.79348 26694 ft 447 kts 277°
2026-04-22 14:47 22.18897 118.76021 26906 ft 448 kts 277°
2026-04-22 14:47 22.19289 118.72731 27181 ft 448 kts 277°
2026-04-22 14:47 22.19685 118.69404 27484 ft 447 kts 277°
2026-04-22 14:47 22.20079 118.66080 27725 ft 447 kts 277°
2026-04-22 14:48 22.20474 118.62746 27890 ft 449 kts 277°
2026-04-22 14:48 22.20870 118.59400 27886 ft 450 kts 277°
2026-04-22 14:48 22.21348 118.56066 27886 ft 449 kts 283°
2026-04-22 14:48 22.22250 118.52854 27897 ft 447 kts 290°
2026-04-22 14:49 22.23514 118.49788 27894 ft 448 kts 298°
2026-04-22 14:49 22.25142 118.46920 27903 ft 448 kts 301°
2026-04-22 14:49 22.26802 118.44129 27892 ft 448 kts 301°
2026-04-22 14:49 22.28482 118.41305 27894 ft 447 kts 301°
2026-04-22 14:50 22.30155 118.38469 27897 ft 447 kts 301°
2026-04-22 14:50 22.31813 118.35632 27897 ft 447 kts 301°
2026-04-22 14:50 22.33467 118.32786 27900 ft 447 kts 301°
2026-04-22 14:50 22.35119 118.29934 27902 ft 447 kts 301°
2026-04-22 14:51 22.36768 118.27086 27896 ft 448 kts 301°
2026-04-22 14:51 22.38419 118.24235 27890 ft 448 kts 301°
2026-04-22 14:51 22.40091 118.21397 27890 ft 448 kts 303°
2026-04-22 14:51 22.41976 118.18762 27894 ft 449 kts 308°
2026-04-22 14:52 22.44008 118.16197 27890 ft 450 kts 309°
2026-04-22 14:52 22.46064 118.13648 27891 ft 450 kts 309°
2026-04-22 14:52 22.48112 118.11096 27892 ft 450 kts 309°
2026-04-22 14:52 22.50149 118.08528 27891 ft 450 kts 308°
2026-04-22 14:53 22.52173 118.05952 27894 ft 450 kts 308°
2026-04-22 14:53 22.54190 118.03369 27892 ft 450 kts 308°
2026-04-22 14:53 22.56208 118.00780 27888 ft 450 kts 308°
2026-04-22 14:53 22.58221 117.98197 27891 ft 450 kts 308°
2026-04-22 14:54 22.60240 117.95610 27891 ft 450 kts 308°
2026-04-22 14:54 22.62296 117.93118 27890 ft 450 kts 310°
2026-04-22 14:54 22.64444 117.90651 27890 ft 450 kts 311°
2026-04-22 14:54 22.66616 117.88207 27891 ft 450 kts 311°
2026-04-22 14:55 22.68791 117.85764 27887 ft 450 kts 311°
2026-04-22 14:55 22.70958 117.83319 27888 ft 450 kts 311°
2026-04-22 14:55 22.73118 117.80865 27888 ft 450 kts 311°
2026-04-22 14:55 22.75274 117.78405 27888 ft 450 kts 311°
2026-04-22 14:56 22.77427 117.75940 27887 ft 450 kts 311°
2026-04-22 14:56 22.79576 117.73476 27882 ft 450 kts 311°
2026-04-22 14:56 22.81695 117.71045 27886 ft 450 kts 311°
2026-04-22 14:56 22.83846 117.68575 27886 ft 450 kts 311°
2026-04-22 14:57 22.85994 117.66109 27888 ft 450 kts 311°
2026-04-22 14:57 22.88143 117.63641 27885 ft 450 kts 311°
2026-04-22 14:57 22.90293 117.61170 27885 ft 450 kts 311°
2026-04-22 14:57 22.92438 117.58704 27885 ft 450 kts 311°
2026-04-22 14:58 22.94589 117.56231 27882 ft 450 kts 311°
2026-04-22 14:58 22.96727 117.53749 27881 ft 449 kts 308°
2026-04-22 14:58 22.98437 117.50943 27882 ft 446 kts 294°
2026-04-22 14:58 22.99456 117.47827 27885 ft 444 kts 283°
2026-04-22 14:59 22.99883 117.44509 27875 ft 444 kts 270°
2026-04-22 14:59 22.99716 117.41164 27894 ft 444 kts 266°
2026-04-22 14:59 22.99508 117.37819 27882 ft 445 kts 267°
2026-04-22 14:59 22.99332 117.34465 27661 ft 446 kts 268°
2026-04-22 15:00 22.99185 117.31110 27531 ft 444 kts 268°
2026-04-22 15:00 22.99050 117.27762 27495 ft 444 kts 268°
2026-04-22 15:00 22.98918 117.24415 27494 ft 444 kts 268°
2026-04-22 15:00 22.98785 117.21063 27489 ft 444 kts 268°
2026-04-22 15:01 22.98650 117.17758 27481 ft 445 kts 268°
2026-04-22 15:01 22.98511 117.14406 27481 ft 445 kts 268°
2026-04-22 15:01 22.98370 117.11055 27481 ft 444 kts 268°
2026-04-22 15:01 22.98227 117.07706 27483 ft 444 kts 268°
2026-04-22 15:02 22.98083 117.04359 27482 ft 444 kts 268°
2026-04-22 15:02 22.97939 117.01010 27482 ft 444 kts 268°
2026-04-22 15:02 22.97794 116.97664 27477 ft 444 kts 268°
2026-04-22 15:02 22.97648 116.94318 27476 ft 444 kts 268°
2026-04-22 15:03 22.97501 116.90972 27476 ft 444 kts 268°
2026-04-22 15:03 22.97356 116.87673 27478 ft 444 kts 268°
2026-04-22 15:03 22.97206 116.84284 27474 ft 444 kts 268°
2026-04-22 15:03 22.97058 116.80942 27470 ft 444 kts 268°
2026-04-22 15:04 22.96911 116.77644 27468 ft 444 kts 268°
2026-04-22 15:04 22.96761 116.74299 27471 ft 443 kts 268°
2026-04-22 15:04 22.96611 116.70962 27471 ft 443 kts 268°
2026-04-22 15:04 22.96460 116.67623 27471 ft 443 kts 268°
2026-04-22 15:05 22.96308 116.64287 27470 ft 443 kts 268°
2026-04-22 15:05 22.96156 116.60948 27463 ft 443 kts 268°
2026-04-22 15:05 22.96003 116.57613 27463 ft 443 kts 268°
2026-04-22 15:05 22.95851 116.54326 27467 ft 442 kts 268°
2026-04-22 15:06 22.95747 116.52076 27465 ft 442 kts 268°
2026-04-22 15:06 22.95543 116.47664 27457 ft 442 kts 268°
2026-04-22 15:06 22.95387 116.44335 27458 ft 442 kts 268°
2026-04-22 15:06 22.95232 116.41009 27457 ft 442 kts 268°
2026-04-22 15:07 22.95075 116.37676 27456 ft 442 kts 268°
2026-04-22 15:07 22.94874 116.34357 27455 ft 442 kts 266°
2026-04-22 15:07 22.94561 116.31039 27454 ft 442 kts 264°
2026-04-22 15:07 22.94202 116.27731 27450 ft 442 kts 264°
2026-04-22 15:08 22.93834 116.24421 27458 ft 442 kts 264°
2026-04-22 15:08 22.93472 116.21114 27461 ft 441 kts 264°
2026-04-22 15:08 22.93125 116.17855 27457 ft 441 kts 264°
2026-04-22 15:08 22.92780 116.14551 27457 ft 441 kts 264°
2026-04-22 15:09 22.92438 116.11244 27459 ft 441 kts 264°
2026-04-22 15:09 22.92097 116.07940 27457 ft 441 kts 264°
2026-04-22 15:09 22.91754 116.04638 27456 ft 441 kts 264°
2026-04-22 15:09 22.91411 116.01339 27461 ft 440 kts 265°
2026-04-22 15:10 22.91079 115.98040 27458 ft 440 kts 265°
2026-04-22 15:10 22.90756 115.94780 27460 ft 440 kts 265°
2026-04-22 15:10 22.90428 115.91479 27462 ft 440 kts 265°
2026-04-22 15:10 22.90098 115.88181 27457 ft 440 kts 265°
2026-04-22 15:11 22.89767 115.84880 27462 ft 440 kts 265°
2026-04-22 15:11 22.89437 115.81585 27457 ft 440 kts 265°
2026-04-22 15:11 22.89107 115.78294 27454 ft 439 kts 265°
2026-04-22 15:11 22.88776 115.74999 27456 ft 439 kts 265°
2026-04-22 15:12 22.88445 115.71711 27461 ft 439 kts 264°
2026-04-22 15:12 22.88113 115.68423 27461 ft 439 kts 264°
2026-04-22 15:12 22.87786 115.65183 27454 ft 439 kts 264°
2026-04-22 15:12 22.87453 115.61897 27456 ft 438 kts 264°
2026-04-22 15:13 22.87119 115.58611 27456 ft 438 kts 264°
2026-04-22 15:13 22.86785 115.55330 27456 ft 438 kts 264°
2026-04-22 15:13 22.86451 115.52051 27458 ft 438 kts 264°
2026-04-22 15:13 22.86116 115.48771 27460 ft 438 kts 264°
2026-04-22 15:14 22.85780 115.45491 27461 ft 438 kts 264°
2026-04-22 15:14 22.85444 115.42213 27445 ft 438 kts 264°
2026-04-22 15:14 22.85111 115.38972 27453 ft 438 kts 264°
2026-04-22 15:14 22.84773 115.35691 27459 ft 439 kts 264°
2026-04-22 15:15 22.84434 115.32405 27469 ft 439 kts 264°
2026-04-22 15:15 22.84094 115.29113 27467 ft 439 kts 264°
2026-04-22 15:15 22.83753 115.25820 27468 ft 440 kts 264°
2026-04-22 15:15 22.83411 115.22528 27460 ft 437 kts 264°
2026-04-22 15:16 22.83074 115.19296 27072 ft 427 kts 264°
2026-04-22 15:16 22.82740 115.16098 26265 ft 428 kts 264°
2026-04-22 15:16 22.82404 115.12878 25241 ft 434 kts 264°
2026-04-22 15:16 22.82063 115.09611 24447 ft 436 kts 264°
2026-04-22 15:17 22.81730 115.06439 24216 ft 422 kts 264°
2026-04-22 15:17 22.81401 115.03312 23805 ft 415 kts 264°
2026-04-22 15:17 22.81075 115.00212 23127 ft 414 kts 263°
2026-04-22 15:17 22.80749 114.97117 22402 ft 413 kts 263°
2026-04-22 15:18 22.80424 114.94039 21798 ft 409 kts 263°
2026-04-22 15:18 22.80102 114.90996 21252 ft 404 kts 263°
2026-04-22 15:18 22.79782 114.87985 20675 ft 401 kts 263°
2026-04-22 15:18 22.79465 114.84999 20102 ft 398 kts 263°
2026-04-22 15:19 22.79150 114.82034 19539 ft 395 kts 263°
2026-04-22 15:19 22.78837 114.79090 18990 ft 392 kts 263°
2026-04-22 15:19 22.78525 114.76168 18454 ft 389 kts 263°
2026-04-22 15:19 22.78221 114.73306 17903 ft 386 kts 264°
2026-04-22 15:20 22.78019 114.71359 17501 ft 384 kts 264°
2026-04-22 15:20 22.77629 114.67578 16800 ft 378 kts 264°
2026-04-22 15:20 22.77338 114.64766 16288 ft 374 kts 264°
2026-04-22 15:20 22.77050 114.61980 15768 ft 370 kts 264°
2026-04-22 15:21 22.76764 114.59223 15250 ft 367 kts 264°
2026-04-22 15:21 22.76479 114.56485 14755 ft 363 kts 264°
2026-04-22 15:21 22.76200 114.53813 14275 ft 360 kts 264°
2026-04-22 15:21 22.75921 114.51128 13790 ft 357 kts 264°
2026-04-22 15:22 22.75647 114.48462 13290 ft 354 kts 264°
2026-04-22 15:22 22.75377 114.45829 12771 ft 350 kts 264°
2026-04-22 15:22 22.75108 114.43217 12238 ft 348 kts 263°
2026-04-22 15:22 22.74841 114.40621 11721 ft 345 kts 263°
2026-04-22 15:23 22.74577 114.38064 11480 ft 335 kts 263°
2026-04-22 15:23 22.74323 114.35613 11385 ft 321 kts 263°
2026-04-22 15:23 22.74083 114.33295 11302 ft 308 kts 263°
2026-04-22 15:23 22.73849 114.31037 11220 ft 296 kts 263°
2026-04-22 15:24 22.73626 114.28860 11147 ft 285 kts 263°
2026-04-22 15:24 22.73411 114.26764 11078 ft 275 kts 263°
2026-04-22 15:24 22.73204 114.24747 10998 ft 265 kts 263°
2026-04-22 15:24 22.73001 114.22781 10775 ft 261 kts 263°
2026-04-22 15:25 22.72799 114.20822 10484 ft 262 kts 262°
2026-04-22 15:25 22.72597 114.18867 10207 ft 261 kts 262°
2026-04-22 15:25 22.72398 114.16943 9963 ft 259 kts 262°
2026-04-22 15:25 22.72198 114.15007 9698 ft 258 kts 262°
2026-04-22 15:26 22.71998 114.13077 9472 ft 255 kts 262°
2026-04-22 15:26 22.71806 114.11211 9409 ft 245 kts 262°
2026-04-22 15:26 22.71619 114.09413 9351 ft 235 kts 262°
2026-04-22 15:26 22.71441 114.07697 9309 ft 223 kts 262°
2026-04-22 15:27 22.71272 114.06075 9186 ft 212 kts 262°
2026-04-22 15:27 22.71108 114.04504 8885 ft 210 kts 262°
2026-04-22 15:27 22.71068 114.02949 8505 ft 212 kts 277°
2026-04-22 15:27 22.71418 114.01398 8177 ft 212 kts 281°
2026-04-22 15:28 22.71774 113.99852 7826 ft 211 kts 281°
2026-04-22 15:28 22.72124 113.98309 7471 ft 211 kts 281°
2026-04-22 15:28 22.72469 113.96768 7141 ft 210 kts 281°
2026-04-22 15:28 22.72812 113.95230 6819 ft 210 kts 281°
2026-04-22 15:29 22.73152 113.93697 6510 ft 209 kts 281°
2026-04-22 15:29 22.73490 113.92166 6214 ft 208 kts 281°
2026-04-22 15:29 22.73825 113.90644 5883 ft 208 kts 281°
2026-04-22 15:30 22.74379 113.88118 5349 ft 206 kts 282°
2026-04-22 15:30 22.74936 113.86161 4922 ft 208 kts 301°
2026-04-22 15:30 22.76034 113.85134 4617 ft 212 kts 326°
2026-04-22 15:30 22.77342 113.84391 4284 ft 213 kts 329°
2026-04-22 15:31 22.78671 113.83673 3950 ft 214 kts 329°
2026-04-22 15:31 22.80002 113.82950 3640 ft 214 kts 329°
2026-04-22 15:31 22.81330 113.82226 3379 ft 213 kts 329°
2026-04-22 15:31 22.82635 113.81508 3356 ft 214 kts 328°
2026-04-22 15:32 22.83958 113.80781 3316 ft 212 kts 329°
2026-04-22 15:32 22.85268 113.80051 3317 ft 212 kts 328°
2026-04-22 15:32 22.86579 113.79314 3308 ft 213 kts 328°
2026-04-22 15:32 22.87890 113.78576 3293 ft 212 kts 328°
2026-04-22 15:33 22.89195 113.77842 3293 ft 211 kts 327°
2026-04-22 15:33 22.90470 113.77084 3286 ft 206 kts 319°
2026-04-22 15:33 22.91259 113.75880 3313 ft 197 kts 280°
2026-04-22 15:33 22.91251 113.74416 3310 ft 201 kts 254°
2026-04-22 15:34 22.90684 113.73036 3303 ft 200 kts 243°
2026-04-22 15:34 22.90045 113.71708 3300 ft 197 kts 243°
2026-04-22 15:34 22.89413 113.70393 3309 ft 196 kts 243°
2026-04-22 15:34 22.88528 113.69282 3296 ft 199 kts 213°
2026-04-22 15:35 22.87683 113.68902 3299 ft 201 kts 195°
2026-04-22 15:35 22.85817 113.69142 3315 ft 210 kts 160°
2026-04-22 15:35 22.84494 113.69780 3314 ft 205 kts 160°
2026-04-22 15:35 22.83235 113.70423 3327 ft 202 kts 158°
2026-04-22 15:36 22.81977 113.71100 3322 ft 202 kts 158°
2026-04-22 15:36 22.80730 113.71785 3250 ft 200 kts 158°
2026-04-22 15:36 22.79493 113.72468 3009 ft 199 kts 158°
2026-04-22 15:36 22.78269 113.73145 2763 ft 196 kts 158°
2026-04-22 15:37 22.77060 113.73812 2511 ft 193 kts 158°
2026-04-22 15:37 22.75880 113.74463 2277 ft 185 kts 158°
2026-04-22 15:37 22.74767 113.75079 2049 ft 175 kts 158°
2026-04-22 15:37 22.73714 113.75660 1814 ft 165 kts 158°
2026-04-22 15:38 22.72714 113.76211 1611 ft 159 kts 158°
2026-04-22 15:38 22.70821 113.77254 1225 ft 149 kts 158°
2026-04-22 15:38 22.69899 113.77762 1040 ft 149 kts 157°
2026-04-22 15:39 22.68970 113.78274 853 ft 150 kts 156°
2026-04-22 15:39 22.68041 113.78786 704 ft 151 kts 156°
2026-04-22 15:39 22.67103 113.79316 520 ft 154 kts 154°
2026-04-22 15:39 22.66149 113.79846 294 ft 152 kts 154°
2026-04-22 15:40 22.65199 113.80366 62 ft 154 kts 154°
2026-04-22 15:40 22.64311 113.80849 14 ft 124 kts 153°
2026-04-22 15:40 22.63735 113.81167 14 ft 62 kts 153°
2026-04-22 15:40 22.63531 113.81258 14 ft 12 kts 182°
2026-04-22 15:41 22.63448 113.81253 14 ft 12 kts 184°
2026-04-22 15:41 22.63368 113.81247 14 ft 11 kts 184°
2026-04-22 15:41 22.63289 113.81241 14 ft 11 kts 184°
2026-04-22 15:41 22.63213 113.81243 14 ft 11 kts 171°
2026-04-22 15:42 22.63151 113.81247 14 ft 9 kts 210°
2026-04-22 15:42 22.63134 113.81189 14 ft 9 kts 288°
2026-04-22 15:42 22.63179 113.81150 16 ft 9 kts 333°
2026-04-22 15:42 22.63246 113.81113 14 ft 14 kts 333°
2026-04-22 15:43 22.63343 113.81060 14 ft 16 kts 333°
2026-04-22 15:43 22.63442 113.81006 14 ft 16 kts 333°
2026-04-22 15:43 22.63537 113.80953 14 ft 15 kts 333°
2026-04-22 15:43 22.63610 113.80909 14 ft 9 kts 314°
2026-04-22 15:44 22.63608 113.80845 14 ft 9 kts 242°
2026-04-22 15:44 22.63579 113.80785 15 ft 9 kts 243°
2026-04-22 15:44 22.63552 113.80726 14 ft 9 kts 243°
2026-04-22 15:44 22.63526 113.80670 14 ft 7 kts 243°
2026-04-22 15:45 22.63502 113.80639 14 ft 5 kts 204°
2026-04-22 15:45 22.63466 113.80647 14 ft 5 kts 153°
2026-04-22 15:45 22.63448 113.80658 14 ft 0 kts 152°
2026-04-22 15:46 22.63449 113.80658 14 ft 0 kts 153°
2026-04-22 15:47 22.63449 113.80657 14 ft 0 kts 153°